User: anonymous   Login
Location: Newark
(41.9364°N, 2.8061°E)
Time: 00:49:35
(UTC+00:00)
Language:

Transit 2A - Orbit

View from above orbital plane
View from above orbital plane
View from above satellite
View from above satellite

Ground track
Ground track

The orbit data is extracted from the following two-line orbital elements,

1    45U 60007A   20059.43374297 -.00000041  00000-0  16564-4 0  9999
2    45  66.6952 310.8591 0251550  34.3001 327.4056 14.33668315106937
Epoch (UTC): 28 February 2020 10:24:35
Eccentricity: 0.0251550
inclination: 66.6952°
perigee height: 599 km
apogee height: 959 km
right ascension of ascending node: 310.8591°
argument of perigee: 34.3001°
revolutions per day: 14.33668315
mean anomaly at epoch: 327.4056°
orbit number at epoch: 10693

The dashed part of the orbit path shows where the satellite is in the earth's shadow,  

DLR